Total_Precipitation_Accumulation
0.00 0.00 0.00 0.00 0.00 0.00 0.00 0.02 0.04 0.09 0.15 0.15 0.18 0.21 0.27 0.36 0.44 0.89 0.55 0.24 0.13 0.05 0.03 0.03 0.04 0.04 0.06 0.07 0.08 0.09 0.08 0.08 0.08 0.09 0.09 0.10 0.10 0.09 0.09 0.10 0.13 0.19 0.22 0.21 0.19 0.19 0.20 0.17 0.12
0.00 0.00 0.00 0.00 0.00 0.00 0.02 0.03 0.06 0.11 0.14 0.17 0.17 0.20 0.23 0.26 0.19 0.15 0.16 0.14 0.13 0.06 0.03 0.03 0.04 0.04 0.05 0.05 0.08 0.10 0.10 0.08 0.08 0.09 0.09 0.09 0.09 0.09 0.09 0.10 0.14 0.20 0.25 0.25 0.23 0.21 0.19 0.16 0.11
0.00 0.00 0.00 0.00 0.00 0.01 0.05 0.07 0.09 0.12 0.14 0.15 0.23 0.30 0.31 0.35 0.30 0.18 0.16 0.15 0.15 0.08 0.04 0.03 0.04 0.04 0.05 0.06 0.07 0.10 0.11 0.09 0.09 0.09 0.09 0.09 0.09 0.09 0.11 0.12 0.13 0.16 0.21 0.20 0.16 0.14 0.14 0.14 0.11
0.00 0.00 0.00 0.00 0.00 0.01 0.03 0.09 0.13 0.12 0.15 0.19 0.25 0.38 0.36 0.38 0.33 0.25 0.20 0.20 0.16 0.10 0.05 0.04 0.05 0.06 0.07 0.08 0.09 0.10 0.10 0.10 0.11 0.12 0.13 0.13 0.13 0.12 0.15 0.18 0.18 0.18 0.19 0.17 0.14 0.13 0.12 0.13 0.10
0.00 0.00 0.00 0.00 0.00 0.01 0.03 0.08 0.15 0.14 0.17 0.26 0.33 0.48 0.58 0.58 0.57 0.48 0.28 0.26 0.27 0.18 0.09 0.05 0.06 0.08 0.11 0.13 0.15 0.16 0.16 0.16 0.17 0.18 0.19 0.18 0.17 0.18 0.18 0.20 0.21 0.20 0.20 0.18 0.16 0.17 0.15 0.13 0.11
0.00 0.00 0.00 0.00 0.01 0.02 0.04 0.10 0.15 0.18 0.20 0.21 0.34 0.61 0.95 0.88 0.69 0.70 0.57 0.39 0.35 0.23 0.13 0.10 0.08 0.10 0.16 0.19 0.22 0.24 0.21 0.19 0.19 0.22 0.23 0.20 0.17 0.17 0.17 0.17 0.18 0.20 0.22 0.21 0.16 0.11 0.08 0.07 0.09
0.00 0.00 0.00 0.00 0.02 0.03 0.05 0.08 0.14 0.16 0.16 0.26 0.50 0.78 1.07 1.04 0.81 0.80 0.79 0.59 0.52 0.36 0.20 0.15 0.12 0.11 0.18 0.26 0.25 0.23 0.22 0.21 0.23 0.27 0.29 0.25 0.20 0.16 0.15 0.18 0.19 0.19 0.19 0.16 0.09 0.06 0.05 0.05 0.06
0.00 0.00 0.00 0.00 0.01 0.04 0.07 0.08 0.11 0.15 0.22 0.40 0.64 0.77 1.02 1.12 0.98 0.79 0.74 0.63 0.55 0.50 0.32 0.24 0.23 0.21 0.21 0.24 0.26 0.26 0.25 0.26 0.27 0.28 0.26 0.22 0.16 0.15 0.16 0.15 0.16 0.16 0.17 0.17 0.12 0.08 0.07 0.06 0.06
0.00 0.00 0.00 0.01 0.02 0.04 0.06 0.08 0.09 0.12 0.20 0.37 0.46 0.58 0.87 0.98 0.91 0.87 0.83 0.70 0.61 0.53 0.46 0.42 0.37 0.34 0.30 0.27 0.24 0.27 0.24 0.25 0.23 0.20 0.19 0.18 0.20 0.26 0.25 0.21 0.19 0.21 0.22 0.20 0.15 0.12 0.11 0.09 0.08
0.00 0.00 0.00 0.01 0.02 0.03 0.06 0.08 0.09 0.12 0.16 0.28 0.44 0.52 0.66 0.86 0.96 1.00 1.01 0.89 0.80 0.74 0.69 0.65 0.64 0.59 0.52 0.46 0.45 0.41 0.35 0.32 0.26 0.29 0.25 0.26 0.49 0.59 0.51 0.50 0.39 0.34 0.29 0.22 0.20 0.18 0.15 0.13 0.13
0.00 0.00 0.01 0.01 0.02 0.03 0.06 0.08 0.08 0.12 0.23 0.30 0.52 0.83 0.82 0.87 1.05 1.23 1.23 1.20 1.22 1.14 0.86 0.76 0.85 0.85 0.91 0.96 0.77 0.73 0.73 0.62 0.49 0.62 0.59 0.60 0.76 0.70 0.70 0.75 0.61 0.49 0.40 0.36 0.38 0.27 0.22 0.21 0.26
0.00 0.01 0.02 0.01 0.01 0.02 0.04 0.08 0.12 0.14 0.32 0.41 0.60 0.89 1.19 1.17 1.31 1.30 1.36 1.46 1.43 1.47 1.22 0.97 0.89 0.89 1.01 1.13 1.05 1.01 0.98 0.91 0.81 0.86 0.73 0.81 0.92 1.01 1.09 1.23 1.07 0.95 0.84 0.79 0.67 0.57 0.43 0.40 0.42
0.00 0.00 0.01 0.02 0.02 0.01 0.04 0.08 0.13 0.15 0.17 0.37 0.57 0.72 1.10 1.09 1.14 1.28 1.51 1.89 1.97 1.79 1.56 1.29 1.08 1.05 1.15 1.26 1.29 1.23 1.20 1.14 1.18 1.26 1.08 1.09 1.04 1.14 1.42 1.47 1.60 1.36 1.31 1.21 1.06 0.88 0.80 0.69 0.62
0.00 0.00 0.00 0.01 0.01 0.03 0.07 0.09 0.11 0.10 0.11 0.19 0.33 0.47 0.76 0.91 1.17 1.51 1.77 2.10 2.47 2.28 1.89 1.61 1.43 1.27 1.18 1.19 1.27 1.28 1.25 1.35 1.43 1.56 1.48 1.44 1.44 1.57 1.93 1.99 1.90 1.69 1.71 1.78 1.75 1.55 1.31 1.09 1.02
0.00 0.00 0.00 0.01 0.01 0.02 0.04 0.07 0.08 0.11 0.13 0.18 0.26 0.40 0.59 0.93 1.16 1.65 2.07 2.28 2.58 2.33 2.22 2.00 1.80 1.64 1.38 1.24 1.34 1.45 1.37 1.41 1.47 1.69 1.81 1.78 1.79 2.02 2.11 2.35 2.30 2.11 2.03 1.97 1.91 2.02 1.96 1.63 1.38
0.00 0.00 0.01 0.01 0.01 0.02 0.02 0.08 0.11 0.12 0.13 0.18 0.26 0.42 0.57 0.84 1.10 1.33 1.68 2.00 2.45 2.47 2.18 2.13 1.85 1.61 1.65 1.56 1.67 1.75 1.87 1.95 1.89 1.94 2.23 2.32 2.31 2.35 2.38 2.41 2.41 2.32 2.28 2.44 2.50 2.40 2.33 2.21 1.94
0.01 0.00 0.01 0.01 0.02 0.03 0.03 0.09 0.17 0.11 0.11 0.17 0.25 0.46 0.76 0.81 0.95 1.08 1.35 1.58 1.91 1.94 1.94 1.98 1.90 1.72 1.65 1.83 2.10 2.24 2.43 2.66 2.80 2.78 2.97 2.94 2.78 2.75 2.83 2.89 2.93 2.78 2.79 2.75 2.63 2.76 2.65 2.55 2.32
0.00 0.02 0.02 0.02 0.02 0.03 0.03 0.06 0.16 0.18 0.20 0.26 0.31 0.41 0.68 0.77 1.02 1.24 1.32 1.36 1.65 1.71 1.77 1.90 2.05 2.10 1.96 1.97 2.21 2.57 2.76 2.96 3.33 3.41 3.45 3.49 3.54 3.51 3.52 3.48 3.47 3.33 3.20 3.06 2.97 2.91 2.68 2.53 2.30
0.00 0.01 0.02 0.02 0.02 0.02 0.05 0.10 0.17 0.21 0.25 0.35 0.42 0.49 0.59 0.74 1.10 1.43 1.50 1.54 1.73 1.92 2.10 2.00 2.04 2.24 2.39 2.63 2.66 2.82 3.15 3.54 3.76 3.95 4.07 4.07 4.00 3.99 3.82 3.70 3.74 3.56 3.38 3.19 3.03 2.91 2.79 2.49 2.24
0.00 0.00 0.01 0.03 0.04 0.04 0.08 0.18 0.24 0.28 0.29 0.36 0.49 0.55 0.56 0.67 0.94 1.36 1.47 1.62 1.81 1.96 2.12 2.20 2.27 2.60 3.08 3.48 3.89 4.26 4.54 4.54 4.69 4.73 4.71 4.57 4.44 4.32 4.12 4.06 3.95 3.71 3.53 3.29 3.04 2.88 2.81 2.56 2.36
0.00 0.00 0.01 0.03 0.06 0.09 0.13 0.28 0.36 0.39 0.45 0.49 0.55 0.61 0.67 0.79 0.96 1.14 1.34 1.58 1.80 1.97 2.17 2.28 2.55 3.18 3.97 4.35 4.67 5.21 5.51 5.32 5.11 4.89 4.81 4.71 4.69 4.69 4.50 4.37 4.09 3.84 3.55 3.27 3.00 2.79 2.69 2.59 2.45
0.00 0.01 0.01 0.03 0.05 0.11 0.14 0.34 0.54 0.59 0.66 0.61 0.69 0.82 0.93 0.96 1.03 1.18 1.37 1.61 1.91 2.20 2.28 2.42 2.89 3.61 4.27 4.73 5.29 5.81 6.03 6.04 5.88 5.40 4.96 4.52 4.18 3.99 3.91 3.84 3.67 3.44 3.16 2.96 2.72 2.51 2.40 2.47 2.35
0.01 0.01 0.01 0.04 0.05 0.09 0.12 0.28 0.64 0.83 0.89 0.86 0.93 0.93 0.96 0.96 1.06 1.20 1.33 1.51 1.70 1.98 2.35 2.59 3.08 3.74 4.40 5.09 5.76 6.13 6.32 6.29 5.87 5.09 4.35 3.90 3.59 3.32 3.11 3.00 2.89 2.75 2.61 2.46 2.38 2.31 2.17 2.11 2.00
0.01 0.01 0.02 0.04 0.06 0.11 0.11 0.25 0.69 1.04 1.21 1.22 1.14 1.09 1.03 0.96 0.98 1.07 1.23 1.31 1.59 1.85 2.12 2.51 2.80 3.42 4.11 4.69 5.18 5.32 5.46 5.39 4.96 4.50 4.01 3.62 3.17 2.68 2.34 2.16 2.05 1.96 1.89 1.89 1.91 1.91 1.85 1.78 1.73
0.01 0.02 0.08 0.16 0.19 0.19 0.15 0.31 0.76 1.10 1.12 1.08 1.11 1.18 1.13 0.98 0.99 1.15 1.36 1.28 1.50 1.74 2.02 2.38 2.77 3.16 3.66 4.16 4.58 4.82 4.93 4.75 4.29 3.87 3.48 3.03 2.56 2.15 1.82 1.64 1.57 1.52 1.50 1.45 1.47 1.49 1.46 1.44 1.45
0.01 0.03 0.15 0.26 0.30 0.32 0.32 0.57 0.98 1.05 0.99 0.94 0.93 0.98 1.07 1.04 0.99 1.04 1.18 1.21 1.41 1.60 1.85 2.18 2.49 2.78 2.98 3.17 3.49 3.72 3.87 3.73 3.40 2.95 2.49 2.21 1.94 1.68 1.46 1.31 1.23 1.12 1.02 1.01 1.06 1.10 1.10 1.10 1.17
0.03 0.05 0.11 0.13 0.17 0.34 0.64 0.90 1.24 1.21 1.08 1.00 0.91 0.89 0.94 0.91 0.88 0.93 1.04 1.15 1.33 1.58 1.81 2.05 2.17 2.31 2.46 2.57 2.62 2.67 2.78 2.68 2.45 2.18 1.90 1.63 1.38 1.18 1.04 0.92 0.83 0.80 0.74 0.74 0.78 0.82 0.83 0.87 0.93
0.04 0.06 0.08 0.12 0.28 0.47 0.73 1.15 1.46 1.59 1.48 1.32 1.05 0.95 0.88 0.93 0.94 0.94 0.99 1.06 1.12 1.21 1.46 1.66 1.74 1.80 1.85 1.88 1.92 1.94 1.95 1.88 1.79 1.63 1.43 1.21 1.05 0.89 0.77 0.65 0.57 0.58 0.60 0.62 0.59 0.61 0.63 0.65 0.71
0.06 0.07 0.09 0.14 0.21 0.42 0.78 1.35 1.60 1.86 1.91 1.71 1.36 1.18 1.12 1.12 1.06 1.00 1.00 0.96 0.97 0.98 1.11 1.29 1.42 1.42 1.46 1.51 1.47 1.41 1.46 1.42 1.34 1.28 1.19 1.05 0.94 0.82 0.71 0.64 0.60 0.57 0.54 0.52 0.54 0.53 0.55 0.59 0.62
0.08 0.11 0.15 0.23 0.26 0.29 0.66 1.50 1.90 2.03 1.97 1.69 1.49 1.33 1.27 1.19 1.06 0.96 0.90 0.81 0.80 0.84 0.87 0.94 1.03 1.04 1.05 1.06 1.06 1.11 1.14 1.15 1.10 1.00 0.90 0.76 0.68 0.63 0.58 0.53 0.53 0.53 0.50 0.49 0.49 0.47 0.45 0.44 0.44